BEIDOU-3 M27 (C49)

Last updated on Mon Oct 20 2025 00:03:25 GMT+0000 (Coordinated Universal Time)

1 61187U 24168C 25292.17193042 -.00000065 00000+0 00000+0 0 9991 2 61187 54.6844 310.5945 0001696 310.3493 54.5849 1.86230354 4773
UTC large
Height (km)
Speed (km/s)
/
Latitude / Longitude
Inclination (degrees)
Orbital Period (minutes)
Azimuth
Elevation
Range (km)
Doppler Factor

Next 0 passes for location: London (51.5072 / 0.1276)

Sorry there are no passes over London.